TimeCET,TemperatureF,Dew PointF,Humidity,Sea Level PressureIn,VisibilityMPH,Wind Direction,Wind SpeedMPH,Gust SpeedMPH,PrecipitationIn,Events,Conditions,WindDirDegrees,DateUTC
12:00 AM,45,41,79,29.60,14,South,11.2,,,,,170,2014-01-02 23:00:00
12:25 AM,44.6,41.0,87,29.59,6.2,South,12.7,-,N/A,,Unknown,170,2014-01-02 23:25:00
12:55 AM,44.6,41.0,87,29.56,6.2,South,13.8,-,N/A,,Unknown,170,2014-01-02 23:55:00
1:00 AM,45,41,81,29.58,14,South,13.4,,,,Partly Cloudy,170,2014-01-03 00:00:00
1:25 AM,44.6,41.0,87,29.56,6.2,SSE,12.7,-,N/A,,Unknown,160,2014-01-03 00:25:00
1:55 AM,44.6,41.0,87,29.53,6.2,South,15.0,-,N/A,,Partly Cloudy,170,2014-01-03 00:55:00
2:00 AM,45,42,84,29.56,13,South,15.7,,,,Partly Cloudy,170,2014-01-03 01:00:00
2:25 AM,44.6,42.8,93,29.53,6.2,South,16.1,-,N/A,,Mostly Cloudy,170,2014-01-03 01:25:00
2:55 AM,44.6,42.8,93,29.53,6.2,South,13.8,-,N/A,,Scattered Clouds,170,2014-01-03 01:55:00
3:00 AM,45,42,86,29.56,12,South,15.7,,,,Scattered Clouds,170,2014-01-03 02:00:00
3:25 AM,44.6,42.8,93,29.53,6.2,South,15.0,-,N/A,,Scattered Clouds,170,2014-01-03 02:25:00
3:55 AM,46.4,42.8,87,29.53,6.2,South,19.6,-,N/A,,Unknown,170,2014-01-03 02:55:00
4:00 AM,47,43,82,29.54,10,South,17.9,,,,Overcast,170,2014-01-03 03:00:00
4:25 AM,48.2,42.8,82,29.50,6.2,South,17.3,-,N/A,,Partly Cloudy,170,2014-01-03 03:25:00
4:55 AM,48.2,44.6,87,29.50,6.2,South,18.4,-,N/A,Rain,Heavy Drizzle,170,2014-01-03 03:55:00
5:00 AM,47,44,87,29.50,4,South,17.9,,,Rain,Light Rain Showers,170,2014-01-03 04:00:00
5:25 AM,48.2,44.6,87,29.47,5.6,South,18.4,-,N/A,,Drizzle,170,2014-01-03 04:25:00
5:55 AM,46.4,44.6,93,29.47,1.9,SSE,17.3,-,N/A,Rain,Light Rain,160,2014-01-03 04:55:00
6:00 AM,47,46,92,29.48,2,SSE,17.9,,,Rain,Rain,160,2014-01-03 05:00:00
6:25 AM,48.2,46.4,93,29.44,3.7,South,18.4,-,N/A,Rain,Light Rain,170,2014-01-03 05:25:00
6:55 AM,48.2,46.4,93,29.44,-9999.0,South,18.4,-,N/A,Rain,Light Rain,170,2014-01-03 05:55:00
7:00 AM,48,46,92,29.46,3,South,17.9,,,Rain,Light Rain,170,2014-01-03 06:00:00
7:25 AM,48.2,46.4,93,29.44,5.0,South,17.3,-,N/A,Rain,Light Rain,180,2014-01-03 06:25:00
7:55 AM,48.2,46.4,93,29.44,6.2,South,19.6,-,N/A,,Overcast,190,2014-01-03 06:55:00
8:00 AM,49,47,89,29.46,9,South,20.1,,,Rain,Rain,190,2014-01-03 07:00:00
8:25 AM,48.2,46.4,93,29.44,6.2,South,19.6,-,N/A,,Overcast,190,2014-01-03 07:25:00
8:55 AM,50.0,46.4,87,29.44,6.2,South,18.4,-,N/A,,Overcast,190,2014-01-03 07:55:00
9:00 AM,49,46,87,29.48,11,South,17.9,,,,Partly Cloudy,190,2014-01-03 08:00:00
9:25 AM,50.0,46.4,87,29.47,6.2,South,16.1,-,N/A,,Mostly Cloudy,190,2014-01-03 08:25:00
9:55 AM,50.0,46.4,87,29.47,6.2,South,18.4,-,N/A,,Mostly Cloudy,190,2014-01-03 08:55:00
10:00 AM,50,46,83,29.49,11,South,20.1,,,,Overcast,190,2014-01-03 09:00:00
10:25 AM,50.0,46.4,87,29.47,6.2,South,20.7,-,N/A,,Overcast,190,2014-01-03 09:25:00
10:55 AM,50.0,46.4,87,29.47,6.2,South,19.6,31.1,N/A,Rain,Light Rain,190,2014-01-03 09:55:00
11:00 AM,51,47,80,29.49,11,South,20.1,,,Rain,Rain,190,2014-01-03 10:00:00
11:25 AM,51.8,46.4,82,29.47,6.2,South,20.7,-,N/A,,Partly Cloudy,190,2014-01-03 10:25:00
11:55 AM,51.8,46.4,82,29.47,6.2,South,18.4,-,N/A,,Partly Cloudy,190,2014-01-03 10:55:00
12:00 PM,52,47,78,29.49,11,South,17.9,,,,Partly Cloudy,190,2014-01-03 11:00:00
12:25 PM,51.8,46.4,82,29.47,6.2,South,19.6,-,N/A,,Mostly Cloudy,190,2014-01-03 11:25:00
12:55 PM,53.6,46.4,77,29.47,6.2,SSW,25.3,40.3,N/A,,Mostly Cloudy,210,2014-01-03 11:55:00
1:00 PM,52,47,76,29.49,9,SW,20.1,,,Rain,Light Rain,220,2014-01-03 12:00:00
1:25 PM,51.8,46.4,82,29.47,6.2,SW,20.7,-,N/A,Rain,Light Rain,220,2014-01-03 12:25:00
1:55 PM,51.8,46.4,82,29.47,6.2,SSW,18.4,31.1,N/A,,Scattered Clouds,210,2014-01-03 12:55:00
2:00 PM,52,46,74,29.49,9,SSW,20.1,,,Rain,Rain,210,2014-01-03 13:00:00
2:25 PM,53.6,46.4,77,29.47,6.2,SSW,17.3,-,N/A,,Partly Cloudy,210,2014-01-03 13:25:00
2:55 PM,53.6,44.6,72,29.47,6.2,SSW,17.3,-,N/A,,Unknown,200,2014-01-03 13:55:00
3:00 PM,53,46,69,29.50,10,SSW,17.9,,,,Partly Cloudy,200,2014-01-03 14:00:00
3:25 PM,51.8,44.6,76,29.47,6.2,SSW,17.3,-,N/A,,Scattered Clouds,200,2014-01-03 14:25:00
3:55 PM,51.8,44.6,76,29.47,6.2,SSW,17.3,-,N/A,,Mostly Cloudy,210,2014-01-03 14:55:00
4:00 PM,52,44,64,29.49,10,SSW,17.9,,,,Partly Cloudy,200,2014-01-03 15:00:00
4:25 PM,51.8,44.6,76,29.47,6.2,SSW,16.1,-,N/A,,Scattered Clouds,200,2014-01-03 15:25:00
4:55 PM,46.4,44.6,93,29.47,5.0,SW,41.4,54.1,N/A,Rain,Rain Showers,230,2014-01-03 15:55:00
5:00 PM,46,43,84,29.51,1,SW,26.8,,,Rain,Rain Showers,230,2014-01-03 16:00:00
5:25 PM,46.4,42.8,87,29.47,6.2,SW,19.6,-,N/A,Rain,Light Rain,220,2014-01-03 16:25:00
5:55 PM,46.4,42.8,87,29.50,6.2,SW,18.4,-,N/A,,Unknown,220,2014-01-03 16:55:00
6:00 PM,47,42,76,29.51,22,SW,20.1,,,Rain,Rain,220,2014-01-03 17:00:00
6:25 PM,48.2,41.0,76,29.50,6.2,SW,20.7,-,N/A,,Unknown,220,2014-01-03 17:25:00
6:55 PM,46.4,39.2,76,29.50,6.2,SSW,20.7,-,N/A,,Partly Cloudy,200,2014-01-03 17:55:00
7:00 PM,46,39,68,29.52,28,South,17.9,,,,Partly Cloudy,190,2014-01-03 18:00:00
7:25 PM,46.4,39.2,76,29.50,6.2,SSW,17.3,28.8,N/A,,Scattered Clouds,200,2014-01-03 18:25:00
7:55 PM,44.6,39.2,81,29.53,6.2,WSW,27.6,-,N/A,,Mostly Cloudy,240,2014-01-03 18:55:00
8:00 PM,45,38,70,29.56,8,SW,26.8,,,Rain,Light Rain Showers,230,2014-01-03 19:00:00
8:25 PM,44.6,39.2,81,29.53,6.2,SW,26.5,44.9,N/A,,Scattered Clouds,220,2014-01-03 19:25:00
8:55 PM,46.4,39.2,76,29.53,6.2,SW,27.6,39.1,N/A,,Partly Cloudy,230,2014-01-03 19:55:00
9:00 PM,45,39,72,29.57,10,SW,26.8,,,Rain,Rain,220,2014-01-03 20:00:00
9:25 PM,44.6,39.2,81,29.56,6.2,SW,28.8,43.7,N/A,,Mostly Cloudy,220,2014-01-03 20:25:00
9:55 PM,44.6,37.4,76,29.59,6.2,SW,23.0,-,N/A,,Scattered Clouds,220,2014-01-03 20:55:00
10:00 PM,45,38,68,29.59,12,SSW,24.6,,,,Partly Cloudy,210,2014-01-03 21:00:00
10:25 PM,44.6,39.2,81,29.59,6.2,SW,21.9,34.5,N/A,,Unknown,220,2014-01-03 21:25:00
10:55 PM,44.6,39.2,81,29.59,6.2,SSW,21.9,-,N/A,,Unknown,210,2014-01-03 21:55:00
11:00 PM,45,39,73,29.62,14,SSW,22.4,,,,Partly Cloudy,210,2014-01-03 22:00:00
11:25 PM,46.4,39.2,76,29.59,6.2,SSW,24.2,41.4,N/A,,Mostly Cloudy,210,2014-01-03 22:25:00
11:55 PM,44.6,39.2,81,29.62,6.2,SSW,21.9,-,N/A,,Partly Cloudy,210,2014-01-03 22:55:00